AP893 Weather Reports


Display with metric or nautical units.
time (UTC)temp
F
wind
direction
speed
MPH
gust
MPH
rain 1hr
in
rain 24hr
in
rain mn
in
humidity
%
barometer
mb
20260831040010 69 256 0.0 0.0 0.00 0.00 0.00 44 1016.3
20260831035009 70 256 0.0 0.0 0.00 0.00 0.00 41 1016.3
20260831033009 72 256 0.0 0.0 0.00 0.00 0.00 39 1016.2
20260831032010 73 256 0.0 0.0 0.00 0.00 0.00 37 1016.2
20260831031010 73 256 0.0 0.0 0.00 0.00 0.00 34 1016.2
20260831030010 74 256 0.0 0.0 0.00 0.00 0.00 34 1016.3
20260831025010 75 256 0.0 0.0 0.00 0.00 0.00 33 1016.3
20260831024010 76 256 0.0 0.0 0.00 0.00 0.00 32 1016.3
20260831023009 77 256 0.0 0.0 0.00 0.00 0.00 31 1016.3
20260831022010 78 256 0.0 0.0 0.00 0.00 0.00 31 1016.3
20260831021009 78 256 0.0 0.0 0.00 0.00 0.00 29 1016.3
20260831020010 79 256 0.0 0.0 0.00 0.00 0.00 29 1016.3
20260831015010 80 256 0.0 0.0 0.00 0.00 0.00 28 1016.3
20260831014010 80 256 0.0 0.0 0.00 0.00 0.00 28 1016.3
20260831013010 81 256 0.0 0.0 0.00 0.00 0.00 27 1016.4
20260831012010 81 256 0.0 0.0 0.00 0.00 0.00 26 1016.6
20260831011010 82 256 0.0 6.0 0.00 0.00 0.00 25 1016.6
20260831010010 82 24 1.0 7.0 0.00 0.00 0.00 24 1016.6
20260831005010 83 0 0.0 5.0 0.00 0.00 0.00 24 1016.6
20260831004010 84 230 2.0 7.0 0.00 0.00 0.00 22 1016.7
20260831003010 85 254 0.0 7.0 0.00 0.00 0.00 22 1016.7
20260831002010 84 219 0.0 6.0 0.00 0.00 0.00 22 1016.7
20260831001010 85 332 0.0 9.0 0.00 0.00 0.00 22 1016.7
20260831000010 85 267 0.0 7.0 0.00 0.00 0.00 22 1016.8
20260830235010 85 240 3.0 9.0 0.00 0.00 0.00 22 1016.8
20260830234010 85 356 0.0 6.0 0.00 0.00 0.00 22 1016.8
20260830233010 85 271 1.0 9.0 0.00 0.00 0.00 21 1016.9
20260830232009 85 260 1.0 9.0 0.00 0.00 0.00 22 1016.9
20260830231009 86 353 6.0 10.0 0.00 0.00 0.00 21 1017.0
20260830230009 85 289 3.0 7.0 0.00 0.00 0.00 21 1017.0
20260830225010 84 295 3.0 10.0 0.00 0.00 0.00 22 1017.1
20260830223009 84 223 0.0 7.0 0.00 0.00 0.00 23 1017.2
20260830222009 84 322 3.0 9.0 0.00 0.00 0.00 23 1017.2
20260830221010 85 324 2.0 10.0 0.00 0.00 0.00 22 1017.3
20260830215009 86 124 0.0 6.0 0.00 0.00 0.00 21 1017.5
20260830214009 85 148 1.0 8.0 0.00 0.00 0.00 22 1017.8
20260830212010 84 269 0.0 12.0 0.00 0.00 0.00 22 1017.8
20260830210009 85 267 1.0 10.0 0.00 0.00 0.00 21 1017.8
20260830205010 86 350 2.0 15.0 0.00 0.00 0.00 20 1017.8
20260830204009 86 244 2.0 8.0 0.00 0.00 0.00 20 1017.9
20260830202009 85 256 5.0 10.0 0.00 0.00 0.00 21 1017.8
20260830201010 86 266 3.0 10.0 0.00 0.00 0.00 20 1017.7
20260830200010 86 282 2.0 8.0 0.00 0.00 0.00 20 1017.7
20260830195009 86 269 3.0 13.0 0.00 0.00 0.00 20 1017.7
20260830194009 86 315 2.0 12.0 0.00 0.00 0.00 20 1017.7
20260830193010 87 144 2.0 9.0 0.00 0.00 0.00 20 1017.8
20260830192009 87 307 5.0 12.0 0.00 0.00 0.00 20 1017.8
20260830191009 87 292 2.0 8.0 0.00 0.00 0.00 20 1017.8
20260830190009 87 116 1.0 10.0 0.00 0.00 0.00 21 1017.8
20260830185009 87 162 2.0 9.0 0.00 0.00 0.00 21 1017.9
20260830184009 87 79 1.0 10.0 0.00 0.00 0.00 21 1017.9
20260830182009 86 227 0.0 8.0 0.00 0.00 0.00 23 1017.9
20260830180009 85 355 3.0 7.0 0.00 0.00 0.00 24 1017.8
20260830175010 85 154 1.0 8.0 0.00 0.00 0.00 24 1017.7
20260830174010 85 126 0.0 8.0 0.00 0.00 0.00 25 1017.7
20260830173011 84 191 1.0 7.0 0.00 0.00 0.00 25 1017.7
20260830172010 83 116 0.0 0.0 0.00 0.00 0.00 25 1017.5
20260830171010 81 116 1.0 5.0 0.00 0.00 0.00 25 1017.4
20260830165009 79 125 2.0 6.0 0.00 0.00 0.00 27 1017.3
20260830164009 79 82 0.0 6.0 0.00 0.00 0.00 28 1017.4
20260830163012 79 158 4.0 8.0 0.00 0.00 0.00 28 1017.3
20260830162009 78 128 1.0 6.0 0.00 0.00 0.00 29 1017.3
20260830161010 77 134 0.0 0.0 0.00 0.00 0.00 31 1017.2
20260830160009 74 134 1.0 5.0 0.00 0.00 0.00 35 1017.2
20260830155009 71 80 0.0 3.0 0.00 0.00 0.00 38 1017.2
20260830154009 69 107 0.0 6.0 0.00 0.00 0.00 41 1017.2
20260830153009 68 126 0.0 5.0 0.00 0.00 0.00 43 1017.2
20260830152010 67 120 1.0 6.0 0.00 0.00 0.00 45 1017.2
20260830150010 64 124 0.0 3.0 0.00 0.00 0.00 49 1017.1
20260830145010 62 136 2.0 6.0 0.00 0.00 0.00 50 1017.1
20260830144009 60 146 1.0 6.0 0.00 0.00 0.00 54 1017.0
20260830143010 59 140 0.0 5.0 0.00 0.00 0.00 56 1016.9
20260830142010 58 107 0.0 0.0 0.00 0.00 0.00 59 1016.8
20260830141010 57 107 0.0 3.0 0.00 0.00 0.00 60 1016.7
20260830140010 57 145 0.0 0.0 0.00 0.00 0.00 61 1016.6
20260830135010 56 145 0.0 3.0 0.00 0.00 0.00 62 1016.4
20260830134010 56 151 0.0 0.0 0.00 0.00 0.00 63 1016.3
20260830133010 56 151 0.0 0.0 0.00 0.00 0.00 63 1016.2
20260830132010 56 151 0.0 0.0 0.00 0.00 0.00 65 1016.1
20260830130009 56 151 0.0 0.0 0.00 0.00 0.00 63 1016.1
20260830125009 57 151 0.0 5.0 0.00 0.00 0.00 64 1016.1
20260830124009 57 152 0.0 0.0 0.00 0.00 0.00 65 1016.1
20260830123009 57 152 0.0 0.0 0.00 0.00 0.00 64 1016.0
20260830122010 56 152 0.0 0.0 0.00 0.00 0.00 65 1016.0
20260830121009 57 152 0.0 0.0 0.00 0.00 0.00 65 1016.0
20260830115009 57 152 0.0 0.0 0.00 0.00 0.00 63 1016.0
20260830113010 58 152 0.0 2.0 0.00 0.00 0.00 62 1016.0
20260830112010 57 134 0.0 2.0 0.00 0.00 0.00 63 1016.1
20260830111010 57 158 0.0 0.0 0.00 0.00 0.00 63 1016.1
20260830110009 57 158 0.0 0.0 0.00 0.00 0.00 63 1016.2
20260830105010 57 158 0.0 3.0 0.00 0.00 0.00 64 1016.1
20260830104010 57 214 1.0 5.0 0.00 0.00 0.00 66 1016.2
20260830102009 56 154 0.0 0.0 0.00 0.00 0.00 69 1016.1
20260830101009 56 154 0.0 7.0 0.00 0.00 0.00 70 1016.2
20260830100009 55 93 0.0 5.0 0.00 0.00 0.00 71 1016.2
20260830095009 55 294 0.0 0.0 0.00 0.00 0.00 71 1016.3
20260830093010 56 294 0.0 0.0 0.00 0.00 0.00 70 1016.3
20260830092010 56 294 0.0 0.0 0.00 0.00 0.00 69 1016.4
20260830091009 56 294 0.0 0.0 0.00 0.00 0.00 68 1016.6
20260830090010 56 294 0.0 0.0 0.00 0.00 0.00 68 1016.6
20260830085010 56 294 0.0 0.0 0.00 0.00 0.00 67 1016.6
20260830082010 57 294 0.0 0.0 0.00 0.00 0.00 64 1016.7
20260830081010 57 294 0.0 0.0 0.00 0.00 0.00 63 1016.9
20260830080009 57 294 0.0 0.0 0.00 0.00 0.00 63 1016.9
20260830075009 57 294 0.0 0.0 0.00 0.00 0.00 63 1016.9
20260830074009 56 294 0.0 0.0 0.00 0.00 0.00 63 1016.9
20260830073010 57 294 0.0 0.0 0.00 0.00 0.00 63 1016.9
20260830071009 57 294 0.0 0.0 0.00 0.00 0.00 61 1017.0
20260830070010 57 294 0.0 0.0 0.00 0.00 0.00 60 1017.0
20260830065009 58 294 0.0 0.0 0.00 0.00 0.00 60 1017.1
20260830064009 58 294 0.0 0.0 0.00 0.00 0.00 59 1017.1
20260830063010 58 294 0.0 0.0 0.00 0.00 0.00 58 1017.1
20260830062010 59 294 0.0 0.0 0.00 0.00 0.00 57 1017.1
20260830061010 59 294 0.0 0.0 0.00 0.00 0.00 56 1017.1
20260830060009 60 294 0.0 0.0 0.00 0.00 0.00 56 1017.2
20260830055009 60 294 0.0 0.0 0.00 0.00 0.00 53 1017.3
20260830054010 61 294 0.0 0.0 0.00 0.00 0.00 52 1017.4
20260830053009 61 294 0.0 0.0 0.00 0.00 0.00 52 1017.5
20260830052009 62 294 0.0 0.0 0.00 0.00 0.00 51 1017.8
20260830051009 63 294 0.0 0.0 0.00 0.00 0.00 50 1018.0
20260830045010 65 294 0.0 0.0 0.00 0.00 0.00 48 1018.0
20260830044009 66 294 0.0 0.0 0.00 0.00 0.00 47 1018.0
20260830043009 66 294 0.0 0.0 0.00 0.00 0.00 45 1018.0
20260830042009 67 294 0.0 0.0 0.00 0.00 0.00 45 1018.0
20260830041009 68 294 0.0 0.0 0.00 0.00 0.00 42 1018.0